Regional Weather Roundup
Issued by NWS Memphis, TN

Home | Current Version | Previous Version | Text Only | Print | Product List | Glossary On
Versions: 1 2 3 4 5 6 7 8 9 10 11 12 13 14 15 16 17 18 19 20 21 22 23 24 25 26 27 28 29 30 31 32 33 34 35 36 37 38 39 40 41 42 43 44 45 46 47 48 49 50
000
ASUS44 KMEG 061910
RWRMEG
MEMPHIS CWA HOURLY WEATHER ROUNDUP
NATIONAL WEATHER SERVICE MEMPHIS TN
200 PM CDT FRI MAY 06 2016

...WEST TENNESSEE...

CITY           SKY/WX    TMP DP  RH WIND       PRES   REMARKS
MEMPHIS INTL   MOSUNNY   73  46  38 NW9       30.08F
NWS MEMPHIS      N/A     71 N/A N/A MISG        N/A
JACKSON        PTSUNNY   70  45  40 NW10      30.06F
LEXINGTON      MOSUNNY   70  41  35 N8        30.04S
DYERSBURG      SUNNY     70  45  40 NW7       30.06F
UNION CITY     SUNNY     72  45  37 W9        30.04F


...EASTERN ARKANSAS...

CITY           SKY/WX    TMP DP  RH WIND       PRES   REMARKS
JONESBORO      SUNNY     72  42  34 CALM      30.08F
WEST MEMPHIS   SUNNY     70  46  42 VRB5      30.08F
BATESVILLE     SUNNY     73  41  31 NW5       30.10F
NEWPORT        SUNNY     74  44  34 NW8       30.10F
WALNUT RIDGE   SUNNY     73  43  33 W7        30.08F
BLYTHEVILLE    SUNNY     72  44  36 VRB6      30.07F
SEARCY         SUNNY     73  47  39 NW5       30.11F
STUTTGART      SUNNY     72  46  40 N10       30.11F
PINE BLUFF     SUNNY     72  41  32 NW8       30.11F
MONTICELLO     SUNNY     75  43  31 N7        30.10F


...NORTH MISSISSIPPI...

CITY           SKY/WX    TMP DP  RH WIND       PRES   REMARKS
TUPELO         MOSUNNY   72  42  34 NW13G20   30.04F
OXFORD         SUNNY     72  43  35 W8        30.09F
BATESVILLE     FAIR      72  44  37 N7        30.08F
OLIVE BRANCH   MOSUNNY   70  45  40 N10       30.07F
TUNICA         SUNNY     70  46  43 N7        30.10F
CORINTH        MOSUNNY   72  45  37 NW12      30.04F
GREENWOOD      MOSUNNY   72  44  36 W7        30.08F
COLUMBUS       MOSUNNY   73  51  46 NW7       30.03F
STARKVILLE     FAIR      72  43  35 N6        30.05S
GOLDEN TRIANGL MOSUNNY   73  46  38 N12       30.05S


...SOUTHEAST MISSOURI...

CITY           SKY/WX    TMP DP  RH WIND       PRES   REMARKS
KENNETT        FAIR      73  45  35 W10       30.06F
WEST PLAINS    SUNNY     74  43  32 VRB3      30.10F
POPLAR BLUFF   SUNNY     74  40  29 N9        30.06F
CAPE GIRARDEAU SUNNY     73  41  31 NW8G17    30.05F


...NORTHWEST ALABAMA...

CITY           SKY/WX    TMP DP  RH WIND       PRES   REMARKS
MUSCLE SHOALS  MOSUNNY   73  39  29 N9        30.04S


...MIDDLE TENNESSEE...

CITY           SKY/WX    TMP DP  RH WIND       PRES   REMARKS
NASHVILLE      MOSUNNY   71  40  32 N14G20    30.01F
CLARKSVILLE    MOSUNNY   69  46  43 N12       30.03F
COLUMBIA       MOSUNNY   70  43  37 N7        30.01F


...WESTERN KENTUCKY...

CITY           SKY/WX    TMP DP  RH WIND       PRES   REMARKS
PADUCAH        SUNNY     73  43  33 VRB5      30.03F
FORT CAMPBELL  MOSUNNY   69  48  46 W8        30.02F


...CENTRAL ARKANSAS...

CITY           SKY/WX    TMP DP  RH WIND       PRES   REMARKS
LITTLE ROCK    SUNNY     76  41  28 VRB5      30.10F


SKY/WX REPORTED AS FAIR MEANS FEW OR NO CLOUDS BELOW
12 THOUSAND FEET.




USA.gov is the U.S. government's official web portal to all federal, state and local government web resources and services.